| time (UTC) | temp C | wind direction | speed KPH | gust KPH | rain 1hr cm | rain 24hr cm | rain mn cm | humidity % | barometer mb |
| 20260903081544 | 15 | 223 | 0.0 | 0.0 | 0.00 | 0.00 | 0.03 | 94 | 1009.1 |
| 20260903080055 | 15 | 222 | 0.0 | 0.0 | 0.00 | 0.00 | 0.03 | 93 | 1009.2 |
| 20260903074541 | 15 | 226 | 1.6 | 0.0 | 0.00 | 0.00 | 0.03 | 93 | 1009.4 |
| 20260903073043 | 16 | 233 | 0.0 | 0.0 | 0.00 | 0.00 | 0.03 | 93 | 1009.6 |
| 20260903071538 | 16 | 233 | 0.0 | 0.0 | 0.00 | 0.00 | 0.03 | 93 | 1009.7 |
| 20260903070036 | 16 | 234 | 1.6 | 0.0 | 0.00 | 0.00 | 0.03 | 93 | 1009.8 |
| 20260903064536 | 16 | 218 | 0.0 | 0.0 | 0.00 | 0.00 | 0.03 | 93 | 1010.0 |
| 20260903063034 | 16 | 227 | 0.0 | 0.0 | 0.00 | 0.00 | 0.03 | 94 | 1010.0 |
| 20260903061532 | 16 | 228 | 1.6 | 0.0 | 0.00 | 0.00 | 0.03 | 93 | 1010.2 |
| 20260903060030 | 15 | 234 | 1.6 | 0.0 | 0.00 | 0.00 | 0.03 | 94 | 1010.2 |
| 20260903054527 | 15 | 227 | 1.6 | 0.0 | 0.00 | 0.00 | 0.03 | 94 | 1010.4 |
| 20260903053024 | 15 | 227 | 0.0 | 0.0 | 0.00 | 0.00 | 0.03 | 93 | 1010.6 |
| 20260903051521 | 14 | 227 | 0.0 | 0.0 | 0.00 | 0.00 | 0.03 | 93 | 1010.6 |
| 20260903050025 | 14 | 228 | 0.0 | 0.0 | 0.00 | 0.00 | 0.03 | 93 | 1010.8 |
| 20260903044523 | 14 | 228 | 0.0 | 0.0 | 0.00 | 0.00 | 0.03 | 93 | 1010.9 |
| 20260903043022 | 14 | 228 | 0.0 | 0.0 | 0.00 | 0.00 | 0.03 | 92 | 1011.1 |
| 20260903041517 | 14 | 228 | 0.0 | 0.0 | 0.00 | 0.00 | 0.03 | 92 | 1011.3 |
| 20260903040016 | 14 | 228 | 0.0 | 0.0 | 0.00 | 0.00 | 0.03 | 92 | 1011.4 |
| 20260903034514 | 14 | 228 | 0.0 | 0.0 | 0.00 | 0.00 | 0.03 | 92 | 1011.5 |
| 20260903033012 | 14 | 228 | 0.0 | 0.0 | 0.00 | 0.00 | 0.03 | 92 | 1011.7 |
| 20260903031511 | 14 | 228 | 0.0 | 0.0 | 0.00 | 0.00 | 0.03 | 92 | 1011.7 |
| 20260903030010 | 14 | 228 | 0.0 | 0.0 | 0.00 | 0.00 | 0.03 | 92 | 1011.8 |
| 20260903024512 | 14 | 227 | 0.0 | 0.0 | 0.00 | 0.00 | 0.03 | 91 | 1011.9 |
| 20260903023008 | 13 | 228 | 0.0 | 0.0 | 0.00 | 0.00 | 0.03 | 91 | 1012.0 |
| 20260903021507 | 13 | 227 | 0.0 | 0.0 | 0.00 | 0.00 | 0.03 | 91 | 1012.1 |
| 20260903020005 | 13 | 227 | 0.0 | 0.0 | 0.00 | 0.00 | 0.03 | 91 | 1012.3 |
| 20260903014504 | 14 | 227 | 0.0 | 0.0 | 0.00 | 0.00 | 0.03 | 91 | 1012.5 |
| 20260903013002 | 13 | 227 | 0.0 | 0.0 | 0.00 | 0.00 | 0.00 | 91 | 1012.6 |
| 20260903011502 | 13 | 228 | 0.0 | 0.0 | 0.00 | 0.00 | 0.00 | 90 | 1012.6 |
| 20260903010003 | 14 | 228 | 0.0 | 0.0 | 0.00 | 0.00 | 0.00 | 90 | 1012.6 |
| 20260903004501 | 14 | 228 | 0.0 | 0.0 | 0.00 | 0.00 | 0.00 | 90 | 1012.6 |
| 20260903003100 | 13 | 228 | 0.0 | 0.0 | 0.00 | 0.00 | 0.00 | 90 | 1012.7 |
| 20260903001606 | 13 | 228 | 0.0 | 0.0 | 0.00 | 0.00 | 0.00 | 90 | 1012.8 |
| 20260903000100 | 13 | 228 | 0.0 | 0.0 | 0.00 | 0.00 | 0.00 | 90 | 1012.8 |
| 20260902234558 | 13 | 226 | 0.0 | 0.0 | 0.00 | 0.00 | 0.00 | 91 | 1012.8 |
| 20260902233057 | 13 | 221 | 0.0 | 0.0 | 0.00 | 0.00 | 0.00 | 90 | 1012.9 |
| 20260902231555 | 13 | 219 | 0.0 | 0.0 | 0.00 | 0.00 | 0.00 | 90 | 1013.0 |
| 20260902230059 | 13 | 219 | 0.0 | 0.0 | 0.00 | 0.00 | 0.00 | 91 | 1013.1 |
| 20260902224558 | 13 | 220 | 0.0 | 0.0 | 0.00 | 0.00 | 0.00 | 91 | 1013.1 |
| 20260902223055 | 13 | 262 | 0.0 | 0.0 | 0.00 | 0.00 | 0.00 | 91 | 1013.1 |
| 20260902221554 | 13 | 263 | 0.0 | 0.0 | 0.00 | 0.00 | 0.00 | 91 | 1013.1 |
| 20260902220056 | 14 | 263 | 0.0 | 0.0 | 0.00 | 0.00 | 0.00 | 91 | 1013.0 |
| 20260902214549 | 14 | 263 | 0.0 | 0.0 | 0.00 | 0.00 | 0.05 | 92 | 1012.9 |
| 20260902213050 | 14 | 263 | 0.0 | 0.0 | 0.00 | 0.00 | 0.05 | 92 | 1012.9 |
| 20260902211548 | 15 | 263 | 0.0 | 0.0 | 0.00 | 0.00 | 0.05 | 92 | 1012.8 |
| 20260902210055 | 15 | 263 | 0.0 | 0.0 | 0.00 | 0.00 | 0.05 | 92 | 1012.8 |
| 20260902204548 | 15 | 227 | 0.0 | 0.0 | 0.00 | 0.00 | 0.05 | 92 | 1012.8 |
| 20260902203048 | 15 | 226 | 0.0 | 0.0 | 0.00 | 0.00 | 0.05 | 92 | 1012.7 |
| 20260902201548 | 15 | 249 | 0.0 | 0.0 | 0.00 | 0.00 | 0.05 | 91 | 1012.9 |
| 20260902200048 | 15 | 229 | 0.0 | 0.0 | 0.00 | 0.00 | 0.05 | 91 | 1012.9 |
| 20260902194547 | 15 | 227 | 1.6 | 0.0 | 0.00 | 0.00 | 0.05 | 91 | 1013.0 |
| 20260902193046 | 15 | 225 | 0.0 | 0.0 | 0.00 | 0.00 | 0.05 | 91 | 1012.9 |
| 20260902191555 | 15 | 219 | 1.6 | 0.0 | 0.00 | 0.00 | 0.05 | 90 | 1012.9 |
| 20260902190053 | 15 | 228 | 1.6 | 0.0 | 0.00 | 0.00 | 0.05 | 90 | 1013.0 |
| 20260902184543 | 15 | 221 | 1.6 | 0.0 | 0.00 | 0.00 | 0.05 | 90 | 1012.9 |
| 20260902183043 | 15 | 214 | 3.2 | 0.0 | 0.00 | 0.00 | 0.05 | 90 | 1012.6 |
| 20260902181549 | 15 | 232 | 1.6 | 0.0 | 0.00 | 0.00 | 0.05 | 89 | 1012.5 |
| 20260902180044 | 16 | 227 | 1.6 | 0.0 | 0.00 | 0.00 | 0.05 | 89 | 1012.6 |
| 20260902174544 | 16 | 223 | 1.6 | 0.0 | 0.00 | 0.00 | 0.05 | 89 | 1012.5 |
| 20260902173042 | 16 | 234 | 3.2 | 0.0 | 0.00 | 0.00 | 0.05 | 89 | 1012.6 |
| 20260902171603 | 16 | 227 | 1.6 | 0.0 | 0.00 | 0.00 | 0.05 | 89 | 1012.6 |
| 20260902170039 | 16 | 240 | 3.2 | 0.0 | 0.00 | 0.00 | 0.05 | 89 | 1012.5 |
| 20260902164537 | 16 | 244 | 3.2 | 0.0 | 0.00 | 0.00 | 0.05 | 89 | 1012.7 |
| 20260902163036 | 16 | 249 | 3.2 | 0.0 | 0.00 | 0.00 | 0.05 | 88 | 1012.8 |
| 20260902161539 | 16 | 231 | 4.8 | 0.0 | 0.00 | 0.00 | 0.05 | 89 | 1012.9 |
| 20260902160041 | 16 | 239 | 3.2 | 0.0 | 0.00 | 0.00 | 0.05 | 89 | 1012.8 |
| 20260902154536 | 16 | 216 | 1.6 | 0.0 | 0.00 | 0.00 | 0.05 | 88 | 1012.8 |
| 20260902153033 | 16 | 234 | 1.6 | 0.0 | 0.00 | 0.00 | 0.05 | 89 | 1012.8 |
| 20260902151533 | 16 | 232 | 4.8 | 0.0 | 0.00 | 0.00 | 0.05 | 89 | 1013.0 |
| 20260902150031 | 16 | 219 | 3.2 | 0.0 | 0.00 | 0.00 | 0.05 | 89 | 1013.1 |
| 20260902144534 | 16 | 247 | 3.2 | 0.0 | 0.00 | 0.00 | 0.05 | 89 | 1013.0 |
| 20260902143031 | 16 | 234 | 3.2 | 0.0 | 0.00 | 0.00 | 0.05 | 90 | 1013.0 |
| 20260902141537 | 16 | 223 | 3.2 | 0.0 | 0.00 | 0.00 | 0.05 | 90 | 1013.1 |
| 20260902140028 | 16 | 226 | 1.6 | 0.0 | 0.00 | 0.00 | 0.05 | 89 | 1013.1 |
| 20260902134528 | 16 | 222 | 1.6 | 0.0 | 0.00 | 0.00 | 0.05 | 88 | 1013.2 |
| 20260902133031 | 15 | 245 | 0.0 | 0.0 | 0.00 | 0.00 | 0.05 | 88 | 1013.2 |
| 20260902131527 | 15 | 246 | 0.0 | 0.0 | 0.00 | 0.00 | 0.05 | 86 | 1013.3 |
| 20260902130032 | 16 | 255 | 0.0 | 0.0 | 0.00 | 0.00 | 0.05 | 84 | 1013.5 |
| 20260902124526 | 18 | 261 | 6.4 | 0.0 | 0.00 | 0.00 | 0.05 | 80 | 1013.6 |
| 20260902123026 | 19 | 234 | 4.8 | 0.0 | 0.00 | 0.00 | 0.05 | 80 | 1013.1 |
| 20260902121525 | 20 | 221 | 4.8 | 0.0 | 0.00 | 0.00 | 0.05 | 76 | 1013.1 |
| 20260902120024 | 20 | 238 | 3.2 | 0.0 | 0.00 | 0.00 | 0.05 | 75 | 1013.2 |
| 20260902114527 | 20 | 221 | 3.2 | 0.0 | 0.00 | 0.00 | 0.05 | 74 | 1013.2 |
| 20260902113027 | 20 | 227 | 4.8 | 0.0 | 0.00 | 0.00 | 0.05 | 72 | 1013.3 |
| 20260902111523 | 20 | 229 | 3.2 | 0.0 | 0.00 | 0.00 | 0.05 | 71 | 1013.4 |
| 20260902110023 | 21 | 244 | 3.2 | 0.0 | 0.00 | 0.00 | 0.05 | 71 | 1013.4 |
| 20260902104526 | 20 | 215 | 6.4 | 0.0 | 0.00 | 0.00 | 0.05 | 73 | 1013.4 |
| 20260902103019 | 20 | 229 | 1.6 | 0.0 | 0.00 | 0.00 | 0.05 | 74 | 1013.4 |
| 20260902101519 | 20 | 214 | 4.8 | 0.0 | 0.00 | 0.00 | 0.05 | 75 | 1013.4 |
| 20260902100018 | 20 | 215 | 1.6 | 0.0 | 0.00 | 0.00 | 0.05 | 76 | 1013.4 |
| 20260902094516 | 20 | 192 | 1.6 | 0.0 | 0.00 | 0.00 | 0.05 | 76 | 1013.4 |
| 20260902093015 | 20 | 224 | 3.2 | 0.0 | 0.00 | 0.00 | 0.05 | 79 | 1013.4 |
| 20260902091515 | 19 | 217 | 8.0 | 0.0 | 0.00 | 0.00 | 0.05 | 78 | 1013.5 |
| 20260902090014 | 20 | 238 | 3.2 | 0.0 | 0.00 | 0.00 | 0.03 | 79 | 1013.5 |
| 20260902084516 | 19 | 225 | 3.2 | 0.0 | 0.00 | 0.00 | 0.03 | 81 | 1013.5 |
| 20260902083006 | 18 | 229 | 1.6 | 0.0 | 0.00 | 0.00 | 0.03 | 83 | 1013.5 |